SL-14 R/B, 17178

Orbit data source: Space-Track

SL-14 R/B, 17178 is space debris in LEO originally from a launch on Tue, 02 Dec 1986 UTC launched from the Plesetsk Missile And Space Complex (PKMTR). Debris objects in space refer to the collection of defunct objects orbiting the Earth. Examples of debris include non-operational satellites, rocket bodies, and fragments generated from explosions, collisions, or faulty payload assembly.

Loading next visibility...
Identifier
17178, 1986-094B
Orbit
LEO
Last TLE update
7 hours ago
Origin
Manufacturer
Yuzhnoe
Mission
Spacecraft
Bus & Motor
S5M, Unknown motor
Mass
1,600 kg wet, 1,600 kg dry
Launch date (UTC)
1986-12-02 (39 years ago)
Launch vehicle
Unknown
Launch site
Plesetsk Missile And Space Complex (PKMTR)
Object type
Payload
Rocket body
Debris
Shape & HBR
Cyl, 2.7 m
Radar Cross Section
7.351 m², Large (>1 m²)

Expand to show TLE details & history

TLE from 7 hours ago
0 SL-14 R/B
1 17178U 86094B   25184.18812602  .00000003  00000-0 -53503-4 0  9993
2 17178  82.6042 216.0579 0003162 140.4330 283.1100 12.42049282749521
Epoch: 2025-07-03T04:30Z
TLE epoch observation values (Epoch: 2025-07-03T04:30:54.088Z)
Latitude
62.65057°
Longitude
-118.66437°
Altitude
1,508.077 km
Speed
7.117 km/s
True Right ascension
15h 22m 04s
True Declination
62° 31' 24"
Sunlit
Object was in daylight at epoch
Visualization orbit readout
Latitude
-16.99417°
Longitude
-135.57457°
Altitude
1,506.672 km
Speed
7.11 km/s
Apparent Right ascension
13h 12m 32s
Apparent Declination
-28° 28' 09"
Sunlit
Object is in daylight
Visualization observer readout
Local Sidereal Time
23:35:30
Azimuth
292.374° WNW
Elevation
-67.012°
Doppler factor
1
Orbital elements
Apogee altitude
1,497.766 km
Perigee altitude
1,492.787 km
Semi-major axis
7,873.414 km
Eccentricity
0.00032
Inclination
82.6042°
RAAN
216.0579°
Arg. of periapsis
140.433°
True anomaly
Unknown
Mean anomaly
283.11°
Eccentric anomaly
Unknown
Mean motion
3.10669 °/min
Orbital period
115.88 mins
BSTAR
-0.000053503
Loading maneuver chart data...
Loading SW <> Apogee altitude chart data...
Loading historical data...
Loading historical data...
Loading historical data...
Loading historical data...
Loading historical data...
Loading historical data...
Loading historical data...
Other satellites on launch #94 in the year 1986 (1986-12-02 UTC)

SL-14 R/B Visibility forecast

Observer location: undefined°, undefined°

Span
Click to sort rows by Start time (UTC) header in descending order
Start Az.
Max El. time (UTC)
Max El. Az.
Max El.
End time (UTC)
End Az.
12 mins2025-07-03 12:31:56.866Z18.474° NNE2025-07-03 12:37:56.866Z67.544° E23.882°2025-07-03 12:43:56.866Z116.761° SE
16 mins2025-07-03 14:27:56.866Z345.834° N2025-07-03 14:35:56.866Z251.535° W42.375°2025-07-03 14:43:56.866Z188.191° SSW
12 mins2025-07-04 01:33:56.866Z132.135° SE2025-07-04 01:38:56.866Z88.571° E27.111°2025-07-04 01:45:56.866Z29.458° NE
15 mins2025-07-04 03:28:56.866Z209.537° SW2025-07-04 03:35:56.866Z287.51° WNW39.534°2025-07-04 03:43:56.866Z359.082° N
|